Flag for Spain Weather past 2 weeks in Madrid, Spain

Now
86 °F

Passing clouds.


Feels Like: 83 °F
Forecast: 69 / 97 °F
Wind: 9 mph from Southeast

Location: Madrid / Cuatro Vientos

Current Time: Aug 30, 2015 at 1:38:08 AM

Latest Report: Aug 29, 2015 at 10:00 PM


Visibility: N/A

Pressure: 30.04 "Hg (27.89 "Hg at 658m altitude)

Humidity: 25%

Dew point: 46 °F

Location of MadridLocation

Historic Weather in Madrid — Graph

°F

Madrid temperature yesterday

Maximum temperature yesterday: 97 °F (at 5:30 PM)
Minimum temperature yesterday: 72 °F (at 7:00 AM)
Average temperature yesterday: 87 °F

Past Weeks' High & Low Weather Summary

 TemperatureHumidityPressure
High97 °F (Aug 20, 5:30 PM)83% (Aug 22, 7:00 AM)30.21 "Hg (Aug 22, 7:00 AM)
Low57 °F (Aug 25, 7:00 AM)12% (Aug 20, 7:30 PM)29.86 "Hg (Aug 17, 6:00 PM)
Average80 °F34%30.03 "Hg
* Reported Aug 14 10:00 PM — Aug 29 10:00 PM, Madrid, Weather by CustomWeather, © 2015

Note: Actual official high and low records may vary slightly from our data, if they occured in-between our weather recording intervals... More about our weather records

Advertising

Madrid weather history for previous 24 hours

 ConditionsComfort  
Time TempWeatherWind HumidityBarometerVisibility
10:00 PM
Sat, Aug 29
86 °FPassing clouds.9 mph25%30.04 "HgN/A
9:30 PM86 °FPassing clouds.8 mph24%30.04 "HgN/A
9:00 PM88 °FPassing clouds.9 mph24%30.04 "HgN/A
8:30 PM90 °FSunny.8 mph21%30.04 "Hg10 mi
8:00 PM91 °FPassing clouds.12 mph20%30.04 "HgN/A
7:30 PM93 °FPassing clouds.9 mph19%30.04 "HgN/A
7:00 PM95 °FPassing clouds.9 mph18%30.04 "HgN/A
6:30 PM95 °FPassing clouds.10 mph18%30.04 "HgN/A
6:00 PM95 °FPassing clouds.8 mph18%30.04 "HgN/A
5:30 PM97 °FPassing clouds.10 mph18%30.04 "HgN/A
5:00 PM95 °FPassing clouds.10 mph19%30.04 "HgN/A
4:30 PM95 °FSunny.5 mph20%30.07 "Hg10 mi
4:00 PM95 °FPassing clouds.8 mph20%30.07 "HgN/A
3:30 PM95 °FPassing clouds.7 mph20%30.09 "HgN/A
3:00 PM93 °FPassing clouds.6 mph21%30.09 "HgN/A
2:30 PM93 °FPassing clouds.6 mph23%30.09 "HgN/A
2:00 PM90 °FSunny.3 mph24%30.12 "Hg10 mi
1:30 PM90 °FSunny.2 mph26%30.12 "Hg10 mi
1:00 PM88 °FSunny.3 mph27%30.12 "Hg10 mi
12:00 PM84 °FSunny.2 mph31%30.15 "Hg10 mi
11:30 AM82 °FSunny.3 mph30%30.15 "Hg10 mi
11:00 AM81 °FPassing clouds.3 mph32%30.15 "HgN/A
10:30 AM81 °FPassing clouds.3 mph32%30.15 "HgN/A
10:00 AM77 °FPassing clouds.6 mph36%30.15 "HgN/A
9:30 AM77 °FPassing clouds.5 mph36%30.12 "HgN/A
9:00 AM75 °FPassing clouds.5 mph39%30.12 "HgN/A
8:00 AM73 °FClear.2 mph41%30.12 "Hg10 mi
7:30 AM73 °FClear.2 mph41%30.12 "Hg10 mi
7:00 AM72 °FClear.No wind47%30.12 "Hg10 mi
Weather by CustomWeather, © 2015

See weather overviewHow to use our weather pages